Terminal Aerodrome Forecast
Issued by NWS

Home | Current Version | Previous Version | Text Only | Print | Product List | Glossary On
Versions: 1 2 3 4 5 6 7 8 9 10 11 12
000
FTUS44 KLIX 241100
TAFMCB
TAF
KMCB 241140Z 2412/2512 00000KT P6SM FEW120
     FM241900 36006KT P6SM SKC
     FM250200 00000KT P6SM SKC=

USA.gov is the U.S. government's official web portal to all federal, state and local government web resources and services.